Weather History for KAXN - August, 2014

Change the Weather History Date:

Friday, August 29, 2014

  Actual Average Record
Temperature  
Mean Temperature 68 °F -  
Max Temperature 73 °F 77 °F 93 °F (2013)
Min Temperature 64 °F 57 °F 47 °F (1986)
Cooling Degree Days 3    
Growing Degree Days 18 (Base 50)    
Moisture  
Dew Point 64 °F    
Average Humidity 94    
Maximum Humidity 100    
Minimum Humidity 78    
Precipitation  
Precipitation 0.20 in - - ()
Sea Level Pressure  
Sea Level Pressure 29.81 in    
Wind  
Wind Speed 7 mph (East)    
Max Wind Speed 14 mph    
Max Gust Speed 20 mph    
Visibility 6 miles    
Events Fog , Rain , Thunderstorm    
Averages and records for this station are not official NWS values.
T = Trace of Precipitation, MM = Missing Value Source: NWS Daily Summary

Daily Weather History Graph

Daily Weather History Graph

Search for Another Location

Airport or City:

Trip Planner

Search our weather history database for the weather conditions in past years. The results will help you decide how hot, cold, wet, or windy it might be!

Date:

Astronomy

Aug. 29, 2014 Rise Set
Actual Time 6:38 AM CDT 8:05 PM CDT
Civil Twilight 6:07 AM CDT 8:36 PM CDT
Nautical Twilight 5:30 AM CDT 9:13 PM CDT
Astronomical Twilight 4:49 AM CDT 9:53 PM CDT
Moon 10:43 AM CDT (8/29) 9:48 PM CDT (8/29)
Length of Visible Light 14h 28m
Length of Day
13h 26m
Waxing Crescent, 15% of the Moon is Illuminated
Aug 29
Waxing Crescent
Sep 2
First Quarter
Sep 8
Full
Sep 15
Last Quarter
Sep 24
New

Hourly Weather History & Observations

Time (CDT) Temp. Dew Point Humidity Pressure Visibility Wind Dir Wind Speed Gust Speed Precip Events Conditions
12:08 AM 64.9 °F 64.0 °F 97% 29.89 in 4.0 mi SSE 13.8 mph - N/A   Overcast
12:28 AM 64.9 °F 64.0 °F 97% 29.88 in 2.5 mi SSE 13.8 mph 19.6 mph N/A   Overcast
12:38 AM 64.9 °F 64.0 °F 97% 29.87 in 5.0 mi SE 12.7 mph - N/A   Overcast
12:53 AM 64.9 °F 64.0 °F 97% 29.86 in 6.0 mi SE 11.5 mph - N/A   Overcast
1:25 AM 64.9 °F 63.0 °F 93% 29.86 in 10.0 mi SE 11.5 mph - N/A   Overcast
1:53 AM 64.9 °F 63.0 °F 93% 29.85 in 9.0 mi SE 11.5 mph - N/A   Overcast
2:23 AM 64.0 °F 63.0 °F 96% 29.84 in 8.0 mi SE 6.9 mph - N/A   Overcast
2:41 AM 64.0 °F 63.0 °F 96% 29.84 in 8.0 mi SE 5.8 mph - N/A   Overcast
2:53 AM 64.0 °F 63.0 °F 96% 29.83 in 6.0 mi SE 5.8 mph - N/A   Overcast
3:42 AM 64.0 °F 63.0 °F 96% 29.82 in 2.0 mi SE 4.6 mph - N/A   Overcast
3:53 AM 64.0 °F 63.0 °F 96% 29.82 in 2.0 mi SSE 3.5 mph - 0.02 in Rain Rain
4:23 AM 64.0 °F 63.0 °F 96% 29.81 in 3.0 mi ESE 4.6 mph - 0.04 in   Overcast
4:31 AM 64.0 °F 63.0 °F 96% 29.81 in 2.0 mi East 4.6 mph - 0.04 in   Overcast
4:39 AM 64.0 °F 63.0 °F 96% 29.81 in 1.8 mi ESE 4.6 mph - 0.04 in   Overcast
4:53 AM 64.0 °F 63.0 °F 96% 29.80 in 1.8 mi ESE 3.5 mph - 0.04 in   Overcast
5:11 AM 64.0 °F 63.0 °F 96% 29.80 in 2.0 mi Calm Calm - N/A   Overcast
5:53 AM 64.0 °F 64.0 °F 100% 29.81 in 2.0 mi Calm Calm - N/A   Overcast
6:08 AM 64.0 °F 64.0 °F 100% 29.81 in 1.8 mi Calm Calm - N/A   Overcast
6:49 AM 64.4 °F 64.4 °F 100% 29.80 in 2.5 mi NE 4.6 mph - N/A   Overcast
6:53 AM 64.0 °F 64.0 °F 100% 29.79 in 2.0 mi ENE 4.6 mph - N/A   Overcast
7:01 AM 64.0 °F 64.0 °F 100% 29.80 in 1.2 mi ENE 4.6 mph - N/A   Overcast
7:18 AM 64.0 °F 64.0 °F 100% 29.80 in 0.8 mi NE 4.6 mph - N/A   Overcast
7:25 AM 64.9 °F 64.0 °F 97% 29.80 in 0.5 mi ENE 4.6 mph - N/A Fog Fog
7:53 AM 64.9 °F 64.0 °F 97% 29.79 in 0.5 mi ENE 5.8 mph - N/A Fog Fog
8:04 AM 64.9 °F 64.0 °F 97% 29.80 in 0.5 mi East 5.8 mph - 0.02 in Fog , Rain , Thunderstorm Rain
8:11 AM 64.9 °F 64.0 °F 97% 29.81 in 0.8 mi ESE 4.6 mph - 0.06 in Rain , Thunderstorm Light Thunderstorms and Rain
8:21 AM 64.9 °F 64.0 °F 97% 29.80 in 1.5 mi ESE 3.5 mph - 0.12 in Rain , Thunderstorm Heavy Thunderstorms and Rain
8:25 AM 64.9 °F 64.0 °F 97% 29.80 in 2.0 mi East 3.5 mph - 0.13 in Rain Rain
8:34 AM 64.9 °F 64.0 °F 97% 29.80 in 4.0 mi East 3.5 mph - 0.14 in Rain Light Rain
8:53 AM 64.9 °F 64.0 °F 97% 29.80 in 8.0 mi Calm Calm - 0.14 in Rain Light Rain
9:01 AM 64.9 °F 64.0 °F 97% 29.81 in 1.8 mi West 4.6 mph - 0.05 in Rain Heavy Rain
9:07 AM 64.9 °F 64.0 °F 97% 29.80 in 0.8 mi Calm Calm - 0.14 in Rain Heavy Rain
9:16 AM 64.9 °F 64.0 °F 97% 29.80 in 1.0 mi Calm Calm - 0.21 in Rain Heavy Rain
9:23 AM 64.9 °F 64.0 °F 97% 29.80 in 2.0 mi Calm Calm - 0.23 in Rain Rain
9:31 AM 64.9 °F 64.0 °F 97% 29.80 in 3.0 mi ENE 3.5 mph - 0.25 in Rain Light Rain
10:18 AM 66.9 °F 64.9 °F 93% 29.80 in 10.0 mi NNE 3.5 mph - N/A   Overcast
10:33 AM 66.0 °F 64.9 °F 96% 29.80 in 10.0 mi Calm Calm - N/A   Overcast
10:53 AM 68.0 °F 64.9 °F 90% 29.80 in 10.0 mi West 3.5 mph - N/A   Overcast
11:53 AM 69.1 °F 64.9 °F 87% 29.80 in 10.0 mi Calm Calm - N/A   Overcast
12:41 PM 69.1 °F 66.0 °F 90% 29.80 in 10.0 mi West 5.8 mph - N/A   Overcast
12:53 PM 69.1 °F 66.0 °F 90% 29.79 in 10.0 mi WSW 3.5 mph - N/A   Overcast
1:03 PM 70.0 °F 64.9 °F 84% 29.79 in 10.0 mi Calm Calm - N/A   Overcast
1:53 PM 70.0 °F 66.0 °F 87% 29.79 in 10.0 mi West 3.5 mph - N/A   Overcast
2:44 PM 71.1 °F 66.0 °F 84% 29.79 in 10.0 mi Variable 4.6 mph - N/A   Overcast
3:14 PM 72.0 °F 66.0 °F 81% 29.78 in 10.0 mi WNW 4.6 mph - N/A   Overcast
3:23 PM 72.0 °F 66.0 °F 81% 29.78 in 10.0 mi WNW 5.8 mph - N/A   Overcast
3:53 PM 72.0 °F 66.0 °F 81% 29.77 in 10.0 mi Calm Calm - N/A   Overcast
4:53 PM 72.0 °F 64.9 °F 78% 29.78 in 10.0 mi NW 8.1 mph - N/A   Overcast
5:53 PM 71.1 °F 66.0 °F 84% 29.78 in 10.0 mi NW 9.2 mph - N/A   Overcast
6:53 PM 70.0 °F 66.0 °F 87% 29.78 in 10.0 mi NW 9.2 mph - N/A   Overcast
7:53 PM 69.1 °F 64.9 °F 87% 29.80 in 10.0 mi NNW 5.8 mph - N/A   Overcast
8:53 PM 69.1 °F 64.9 °F 87% 29.81 in 10.0 mi North 4.6 mph - N/A   Overcast
10:53 PM 64.9 °F 64.0 °F 97% 29.83 in 10.0 mi NNW 5.8 mph - N/A   Clear
11:53 PM 66.0 °F 64.0 °F 93% 29.83 in 10.0 mi NNW 6.9 mph - N/A   Overcast